CW1792 Weather Reports


Display with metric or nautical units.
time (UTC)temp
F
wind
direction
speed
MPH
gust
MPH
rain 1hr
in
rain 24hr
in
rain mn
in
humidity
%
barometer
mb
20260505185328 59 42 1.0 3.0 0.00 0.00 0.00 73 1015.7
20260505184828 59 352 1.0 3.0 0.00 0.00 0.00 72 1015.7
20260505184328 59 355 1.0 3.0 0.00 0.00 0.00 73 1015.6
20260505183827 59 70 1.0 2.0 0.00 0.00 0.00 73 1015.7
20260505182828 58 287 0.0 3.0 0.00 0.00 0.00 72 1015.7
20260505182327 58 321 2.0 3.0 0.00 0.00 0.00 73 1015.7
20260505181827 58 320 1.0 3.0 0.00 0.00 0.00 73 1015.7
20260505181328 58 244 0.0 2.0 0.00 0.00 0.00 73 1015.7
20260505180828 58 244 1.0 2.0 0.00 0.00 0.00 73 1015.6
20260505180328 58 265 0.0 2.0 0.00 0.00 0.00 72 1015.6
20260505175828 58 321 2.0 3.0 0.00 0.00 0.00 72 1015.6
20260505175327 58 262 1.0 2.0 0.00 0.00 0.00 72 1015.5
20260505174828 58 0 0.0 0.0 0.00 0.00 0.00 72 1015.4
20260505174328 58 0 0.0 2.0 0.00 0.00 0.00 71 1015.3
20260505173828 57 355 1.0 3.0 0.00 0.00 0.00 72 1015.2
20260505173327 57 263 0.0 0.0 0.00 0.00 0.00 72 1015.2
20260505172828 57 263 1.0 2.0 0.00 0.00 0.00 72 1015.2
20260505172328 57 41 0.0 1.0 0.00 0.00 0.00 73 1015.2
20260505171328 57 49 0.0 2.0 0.00 0.00 0.00 73 1015.2
20260505170828 57 49 1.0 2.0 0.00 0.00 0.00 73 1015.1
20260505170327 57 320 0.0 0.0 0.00 0.00 0.00 72 1015.1
20260505165828 57 320 1.0 3.0 0.00 0.00 0.00 72 1015.1
20260505165328 57 322 1.0 3.0 0.00 0.00 0.00 73 1015.1
20260505164828 57 7 0.0 2.0 0.00 0.00 0.00 74 1015.1
20260505164327 57 52 1.0 2.0 0.00 0.00 0.00 74 1015.0
20260505163827 56 52 0.0 1.0 0.00 0.00 0.00 75 1015.0
20260505163328 56 52 1.0 2.0 0.00 0.00 0.00 76 1014.9
20260505162827 56 53 1.0 2.0 0.00 0.00 0.00 76 1014.9
20260505162328 56 100 0.0 3.0 0.00 0.00 0.00 76 1015.0
20260505161828 56 128 0.0 3.0 0.00 0.00 0.00 76 1015.0
20260505161328 56 123 2.0 3.0 0.00 0.00 0.00 77 1014.9
20260505160828 56 99 1.0 3.0 0.00 0.00 0.00 78 1014.9
20260505153327 54 79 0.0 3.0 0.00 0.00 0.00 81 1014.7
20260505152827 54 94 1.0 3.0 0.00 0.00 0.00 82 1014.7
20260505152327 54 121 1.0 2.0 0.00 0.00 0.00 82 1014.7
20260505151827 54 121 1.0 2.0 0.00 0.00 0.00 83 1014.7
20260505151327 54 131 0.0 2.0 0.00 0.00 0.00 84 1014.7
20260505150828 54 131 0.0 2.0 0.00 0.00 0.00 84 1014.6
20260505150327 54 131 0.0 2.0 0.00 0.00 0.00 84 1014.6
20260505140327 53 263 0.0 0.0 0.00 0.00 0.00 87 1014.2
20260505124827 53 280 0.0 0.0 0.00 0.00 0.00 88 1014.1
20260505124327 53 280 0.0 0.0 0.00 0.00 0.00 88 1014.1
20260505123827 53 280 0.0 2.0 0.00 0.00 0.00 88 1014.1
20260505122827 53 280 0.0 2.0 0.00 0.00 0.00 88 1014.1
20260505122327 53 280 1.0 2.0 0.00 0.00 0.00 88 1014.1
20260505121327 53 280 0.0 1.0 0.00 0.00 0.00 88 1014.1
20260505120828 53 280 0.0 0.0 0.00 0.00 0.00 88 1014.1
20260505120327 53 280 0.0 1.0 0.00 0.00 0.00 88 1014.2
20260505115827 53 280 0.0 1.0 0.00 0.00 0.00 88 1014.2
20260505115327 53 280 0.0 1.0 0.00 0.00 0.00 88 1014.2
20260505114327 53 280 0.0 0.0 0.00 0.00 0.00 87 1014.3
20260505113327 53 280 0.0 0.0 0.00 0.00 0.00 86 1014.3
20260505112827 53 280 0.0 1.0 0.00 0.00 0.00 86 1014.2
20260505111828 53 280 0.0 0.0 0.00 0.00 0.00 86 1014.2
20260505111328 53 281 0.0 1.0 0.00 0.00 0.00 85 1014.2
20260505110828 53 281 0.0 1.0 0.00 0.00 0.00 85 1014.2
20260505110327 53 280 0.0 0.0 0.00 0.00 0.00 84 1014.1
20260505101828 54 294 0.0 0.0 0.00 0.00 0.00 82 1014.1
20260505100827 54 294 0.0 2.0 0.00 0.00 0.00 81 1014.2
20260505100328 54 294 0.0 1.0 0.00 0.00 0.00 82 1014.2
20260505095827 54 294 0.0 0.0 0.00 0.00 0.00 81 1014.2
20260505095327 54 294 0.0 1.0 0.00 0.00 0.00 80 1014.2
20260505094828 54 294 0.0 0.0 0.00 0.00 0.00 79 1014.3
20260505094328 54 294 0.0 0.0 0.00 0.00 0.00 78 1014.3
20260505093827 54 294 0.0 0.0 0.00 0.00 0.00 78 1014.4
20260505093328 54 294 0.0 1.0 0.00 0.00 0.00 77 1014.4
20260505092827 54 294 0.0 1.0 0.00 0.00 0.00 76 1014.3
20260505092327 54 294 0.0 0.0 0.00 0.00 0.00 76 1014.2
20260505091827 54 294 0.0 2.0 0.00 0.00 0.00 76 1014.3
20260505091327 54 316 0.0 2.0 0.00 0.00 0.00 76 1014.3
20260505090828 54 332 0.0 3.0 0.00 0.00 0.00 76 1014.5
20260505090327 54 346 1.0 3.0 0.00 0.00 0.00 76 1014.5
20260505085827 54 344 1.0 3.0 0.00 0.00 0.00 76 1014.7
20260505085327 54 343 2.0 5.0 0.00 0.00 0.00 76 1014.6
20260505084827 54 325 1.0 2.0 0.00 0.00 0.00 76 1014.6
20260505084327 54 291 0.0 3.0 0.00 0.00 0.00 76 1014.7
20260505083827 54 334 2.0 5.0 0.00 0.00 0.00 76 1014.9
20260505082827 54 319 1.0 6.0 0.00 0.00 0.00 78 1015.0
20260505082327 54 312 2.0 3.0 0.00 0.00 0.00 78 1014.9
20260505081828 54 304 3.0 6.0 0.00 0.00 0.00 78 1014.8
20260505081327 54 318 1.0 3.0 0.00 0.00 0.00 79 1014.9
20260505080827 54 337 1.0 5.0 0.00 0.00 0.00 79 1014.9
20260505080327 54 302 2.0 7.0 0.00 0.00 0.00 81 1015.0
20260505075828 54 311 1.0 2.0 0.00 0.00 0.00 81 1015.1
20260505075328 55 226 0.0 1.0 0.00 0.00 0.00 81 1015.1
20260505074828 55 226 0.0 1.0 0.00 0.00 0.00 81 1015.0
20260505073828 55 226 0.0 1.0 0.00 0.00 0.00 80 1015.1
20260505073328 55 226 0.0 1.0 0.00 0.00 0.00 80 1015.0
20260505072827 55 226 0.0 1.0 0.00 0.00 0.00 80 1014.9
20260505072327 55 226 0.0 1.0 0.00 0.00 0.00 79 1014.9
20260505071827 55 226 0.0 1.0 0.00 0.00 0.00 78 1014.8
20260505070327 55 226 0.0 1.0 0.00 0.00 0.00 78 1014.7
20260505065827 55 227 0.0 2.0 0.00 0.00 0.00 77 1014.6
20260505065327 55 357 0.0 1.0 0.00 0.00 0.00 77 1014.6
20260505063827 55 357 0.0 1.0 0.00 0.00 0.00 76 1014.6
20260505062828 55 319 0.0 1.0 0.00 0.00 0.00 75 1014.6
20260505062328 55 313 1.0 2.0 0.00 0.00 0.00 75 1014.5
20260505061827 56 256 0.0 0.0 0.00 0.00 0.00 75 1014.3
20260505061327 56 256 0.0 0.0 0.00 0.00 0.00 75 1014.3
20260505060827 56 256 0.0 0.0 0.00 0.00 0.00 74 1014.3
20260505060327 56 256 0.0 1.0 0.00 0.00 0.00 74 1014.3
20260505055327 56 256 0.0 2.0 0.00 0.00 0.00 74 1014.5
20260505054827 56 257 1.0 2.0 0.00 0.00 0.00 74 1014.6
20260505054327 57 263 0.0 1.0 0.00 0.00 0.00 74 1014.6
20260505053828 57 319 0.0 1.0 0.00 0.00 0.00 74 1014.6
20260505052827 57 355 1.0 3.0 0.00 0.00 0.00 73 1014.9
20260505051827 57 311 0.0 1.0 0.00 0.00 0.00 73 1015.0
20260505051328 57 326 0.0 2.0 0.00 0.00 0.00 73 1015.0
20260505050327 57 329 1.0 3.0 0.00 0.00 0.00 73 1015.0
20260505041327 58 316 1.0 5.0 0.00 0.00 0.00 67 1014.5
20260505040828 58 328 2.0 7.0 0.00 0.00 0.00 67 1014.5
20260505040327 58 322 2.0 6.0 0.00 0.00 0.00 66 1014.4
20260505035827 58 327 1.0 6.0 0.00 0.00 0.00 66 1014.4
20260505035327 59 331 3.0 7.0 0.00 0.00 0.00 65 1014.2
20260505034827 59 330 2.0 6.0 0.00 0.00 0.00 65 1014.2
20260505033827 59 311 1.0 2.0 0.00 0.00 0.00 67 1014.0
20260505033327 59 292 0.0 1.0 0.00 0.00 0.00 68 1013.9
20260505032827 59 248 0.0 1.0 0.00 0.00 0.00 68 1013.8
20260505032328 59 254 0.0 2.0 0.00 0.00 0.00 68 1013.7
20260505031327 59 329 0.0 2.0 0.00 0.00 0.00 67 1013.7
20260505030327 60 304 0.0 2.0 0.00 0.00 0.00 68 1013.8
20260505025327 60 241 1.0 5.0 0.00 0.00 0.00 68 1013.8
20260505024828 60 325 1.0 2.0 0.00 0.00 0.00 68 1013.8
20260505024327 60 266 1.0 2.0 0.00 0.00 0.00 69 1013.7
20260505023828 60 293 0.0 3.0 0.00 0.00 0.00 69 1013.6
20260505023327 60 282 0.0 3.0 0.00 0.00 0.00 68 1013.7
20260505022827 60 283 2.0 6.0 0.00 0.00 0.00 67 1013.9
20260505022327 60 332 4.0 12.0 0.00 0.00 0.00 66 1013.6
20260505021827 61 316 2.0 8.0 0.00 0.00 0.00 64 1013.7
20260505021327 61 10 1.0 7.0 0.00 0.00 0.00 64 1013.8
20260505020827 61 319 2.0 5.0 0.00 0.00 0.00 61 1013.7
20260505020327 61 344 2.0 6.0 0.00 0.00 0.00 61 1013.6
20260505015828 61 316 2.0 7.0 0.00 0.00 0.00 60 1013.7
20260505015327 61 322 1.0 7.0 0.00 0.00 0.00 60 1013.7
20260505014827 62 2 1.0 7.0 0.00 0.00 0.00 60 1013.6
20260505014327 62 317 5.0 7.0 0.00 0.00 0.00 60 1013.6
20260505013827 62 25 2.0 7.0 0.00 0.00 0.00 60 1013.6
20260505013327 62 346 3.0 7.0 0.00 0.00 0.00 60 1013.6
20260505012827 62 351 3.0 10.0 0.00 0.00 0.00 60 1013.7
20260505011827 63 25 2.0 5.0 0.00 0.00 0.00 60 1013.7
20260505010327 63 347 1.0 3.0 0.00 0.00 0.00 60 1013.8
20260505005827 63 322 2.0 3.0 0.00 0.00 0.00 60 1013.8
20260505005327 63 263 0.0 2.0 0.00 0.00 0.00 62 1013.8
20260505004827 63 274 1.0 3.0 0.00 0.00 0.00 61 1013.9
20260505004327 62 288 1.0 5.0 0.00 0.00 0.00 61 1013.9
20260505003827 62 343 1.0 6.0 0.00 0.00 0.00 61 1014.0
20260505003327 62 323 3.0 7.0 0.00 0.00 0.00 61 1014.0
20260505002327 62 288 4.0 10.0 0.00 0.00 0.00 61 1014.0
20260505001827 62 320 3.0 7.0 0.00 0.00 0.00 61 1014.0
20260505001327 62 318 3.0 10.0 0.00 0.00 0.00 62 1014.0
20260505000827 62 327 5.0 8.0 0.00 0.00 0.00 62 1013.9
20260505000327 62 327 3.0 7.0 0.00 0.00 0.00 62 1013.9
20260504235828 62 264 1.0 6.0 0.00 0.00 0.00 63 1013.9
20260504235328 62 292 1.0 6.0 0.00 0.00 0.00 64 1013.9
20260504234827 62 299 2.0 6.0 0.00 0.00 0.00 64 1013.8
20260504234327 62 275 1.0 5.0 0.00 0.00 0.00 64 1013.8
20260504233828 63 280 2.0 6.0 0.00 0.00 0.00 64 1013.9
20260504233327 63 270 2.0 5.0 0.00 0.00 0.00 64 1013.9
20260504232827 63 281 1.0 7.0 0.00 0.00 0.00 64 1013.9
20260504232327 63 251 2.0 8.0 0.00 0.00 0.00 65 1013.9
20260504231327 64 266 1.0 5.0 0.00 0.00 0.00 63 1013.9
20260504230827 64 263 2.0 6.0 0.00 0.00 0.00 62 1013.9
20260504230327 64 289 3.0 8.0 0.00 0.00 0.00 61 1013.9
20260504225827 64 263 1.0 7.0 0.00 0.00 0.00 60 1014.0
20260504225327 64 294 1.0 5.0 0.00 0.00 0.00 60 1013.8
20260504224827 64 254 1.0 5.0 0.00 0.00 0.00 59 1013.8
20260504224327 64 303 1.0 5.0 0.00 0.00 0.00 58 1013.7
20260504223327 65 284 1.0 6.0 0.00 0.00 0.00 59 1013.9
20260504222827 65 288 1.0 3.0 0.00 0.00 0.00 58 1013.9
20260504222327 65 283 2.0 7.0 0.00 0.00 0.00 57 1013.9
20260504221827 65 303 1.0 5.0 0.00 0.00 0.00 58 1013.9
20260504221327 65 338 3.0 7.0 0.00 0.00 0.00 56 1013.9
20260504220827 65 15 3.0 6.0 0.00 0.00 0.00 55 1013.9
20260504220328 65 321 2.0 6.0 0.00 0.00 0.00 56 1014.1
20260504215827 65 320 3.0 7.0 0.00 0.00 0.00 54 1014.1
20260504215327 65 314 1.0 3.0 0.00 0.00 0.00 59 1014.1
20260504214827 65 256 2.0 3.0 0.00 0.00 0.00 57 1014.1
20260504214327 65 307 3.0 7.0 0.00 0.00 0.00 59 1014.2
20260504213827 65 273 1.0 5.0 0.00 0.00 0.00 61 1014.3
20260504213327 65 271 2.0 6.0 0.00 0.00 0.00 60 1014.4
20260504212826 64 280 2.0 6.0 0.00 0.00 0.00 62 1014.4
20260504211827 64 305 3.0 7.0 0.00 0.00 0.00 62 1014.3
20260504211327 64 250 3.0 10.0 0.00 0.00 0.00 62 1014.4
20260504210827 64 226 3.0 8.0 0.00 0.00 0.00 62 1014.5
20260504205827 64 226 2.0 6.0 0.00 0.00 0.00 62 1014.6
20260504204327 64 253 1.0 7.0 0.00 0.00 0.00 63 1014.5
20260504203827 63 243 2.0 6.0 0.00 0.00 0.00 63 1014.5
20260504203327 63 263 2.0 7.0 0.00 0.00 0.00 63 1014.6
20260504202827 63 259 2.0 8.0 0.00 0.00 0.00 63 1014.4
20260504202327 63 308 3.0 7.0 0.00 0.00 0.00 61 1014.4
20260504200827 62 276 1.0 5.0 0.00 0.00 0.00 61 1014.5
20260504200327 62 327 2.0 6.0 0.00 0.00 0.00 61 1014.5
20260504195827 62 331 4.0 6.0 0.00 0.00 0.00 60 1014.6
20260504195326 62 247 1.0 5.0 0.00 0.00 0.00 60 1014.7
20260504194827 62 325 1.0 3.0 0.00 0.00 0.00 60 1014.7
20260504194327 63 328 2.0 3.0 0.00 0.00 0.00 60 1014.6
20260504193827 63 329 5.0 8.0 0.00 0.00 0.00 60 1014.6
20260504192827 63 325 1.0 5.0 0.00 0.00 0.00 59 1014.5
20260504192327 63 337 3.0 7.0 0.00 0.00 0.00 58 1014.5
20260504191827 64 299 3.0 13.0 0.00 0.00 0.00 58 1014.6
20260504191327 64 319 2.0 10.0 0.00 0.00 0.00 57 1014.6
20260504190827 64 334 2.0 6.0 0.00 0.00 0.00 56 1014.6